カタログに戻る

BREEZE-M DEB

LostHEO
NORAD 39997·DEBRIS·🇷🇺 Russia

打ち上げ Mar 14, 2008 から Baikonur Cosmodrome

Loading…

次のパス (今後24時間)

TLE

古いSource: Space-Track

元期: Oct 23, 2013, 23:20 UTC

1 39997U 08011DW  13296.97242389  .00000969  00000-0  20000-1 0  9999
2 39997  49.8740 225.8006 6731970 198.3427 112.8608  2.72051466778349

AllMySatでBREEZE-M DEBをリアルタイム追跡

Download on the App Store